sat.trackr.live / text

‹ back to catalog

STARLINK-1008

NORAD 44714 · 2019-074B

PAYLOAD ACTIVE UNKNOWN

§ Identity

Operator
Country
US
Launch date
2019-11-11
Launch site
AFETR
Launch vehicle
Mass (kg)
RCS (m²)

Purposes: comms

External: N2YO · Heavens-Above · Gunter

§ Orbital elements

Epoch: 2026-05-25T01:51:39.970944Z

Period
93.08 min
Inclination
53.1534°
Eccentricity
0.0002873
Mean motion
15.47043053 rev/d
Perigee alt
423.4 km
Apogee alt
427.3 km
Semi-major
6,803.5 km
B*
7.9909e-4
RAAN
179.1223°
Arg perigee
40.4824°
Mean anomaly
319.6397°
Rev number
36,063

§ Raw data

STARLINK-10081 44714U 19074B   26145.07754596  .00040845  00000+0  79909-3 0  99992 44714  53.1534 179.1223 0002873  40.4824 319.6397 15.47043053360638

JSON: /api/v1/satellites/44714 · /tle

For live sub-satellite position, see the globe view (requires WebGL).

§ Visibility from observer

Set your observer location to see the next 7 days of passes ≥ 10°. The values pass through the URL so the page stays shareable.

No JS? Fill the form by hand. The geolocation button needs JavaScript.